Location: Castillon
(43.0896°N, 0.2156°E)
Time: 20:00:31
(UTC+00:00)

USA 267 - Pass Details

Date: 16 June 2021
Orbit: 1102 x 1106 km, 123.0° (Epoch: 01 August)

Event Time Altitude Azimuth Distance (km) Brightness Sun altitude
Exits shadow 22:12:27 - 96° (E) 3,364 5.5 -19.1°
Reaches altitude 10° 22:13:34 10° 93° (E) 2,958 5.2 -19.2°
Maximum altitude 22:19:37 42° 25° (NNE) 1,518 4.3 -19.6°
Drops below altitude 10° 22:25:41 10° 317° (NW) 2,968 6.6 -20.1°
Sets 22:28:18 0° 311° (NW) 3,928 7.3 -20.3°
